Temperature
15 16 16 16 16 13 12 12 12 12 12 14 13 12 14 15 15 14 14 13 13 12 12 12 12 12 12 12 12 12 12 12 12 12 12 12 12 12 12 12 12 12 12 12
15 16 15 15 16 15 14 13 12 12 13 13 13 14 14 14 14 14 14 13 13 12 12 12 12 12 12 11 11 11 12 12 12 12 12 12 12 12 12 12 12 12 11 11
13 15 16 15 16 16 14 13 13 13 14 13 13 12 14 15 15 15 14 13 13 13 12 12 12 12 11 11 11 11 11 12 12 12 12 11 11 11 11 11 11 11 11 11
12 14 14 15 16 16 15 15 13 13 13 13 13 16 16 16 15 15 14 14 13 13 12 12 12 11 11 11 11 11 11 11 11 11 11 11 11 11 11 11 11 11 11 11
10 12 13 15 16 16 15 15 15 14 14 15 15 13 15 17 16 15 15 14 13 13 12 12 11 11 11 11 11 11 11 11 11 11 11 11 11 11 11 10 10 10 10 10
11 12 13 14 16 17 16 15 15 14 14 14 12 12 14 17 16 16 15 14 13 13 12 11 11 11 11 10 10 11 11 11 11 11 11 11 10 10 10 10 10 10 10 10
11 11 13 14 16 17 15 15 17 17 17 16 13 15 17 17 16 16 15 14 13 12 12 11 11 11 10 10 10 10 10 10 10 10 10 10 10 10 10 10 9 9 9 9
10 11 12 15 16 15 15 17 18 18 18 18 18 18 18 17 16 15 15 14 13 12 12 11 11 10 10 10 10 10 10 10 10 10 10 10 10 9 9 9 9 9 9 9
11 12 14 16 16 18 18 17 18 18 19 18 18 18 18 17 16 15 15 14 13 12 11 11 11 10 10 10 10 10 10 10 10 10 10 9 9 9 9 9 9 9 8 8
10 11 13 16 17 18 18 18 18 18 18 18 18 18 18 17 17 16 15 14 13 12 11 11 11 10 10 10 10 10 10 9 9 9 9 9 9 9 9 9 8 8 8 8
10 11 13 15 17 18 18 18 18 18 18 18 18 18 18 17 17 16 15 14 13 12 12 11 11 11 10 10 10 10 9 9 9 9 9 9 9 9 8 8 8 8 8 8
13 14 13 14 17 17 17 17 17 17 17 18 18 18 18 17 17 17 15 14 13 13 12 12 11 11 10 10 10 10 10 9 9 8 8 8 8 8 8 8 8 8 8 8
14 15 15 15 16 16 16 17 17 17 17 17 18 18 18 17 17 17 16 15 14 13 13 12 11 11 10 10 10 10 10 9 9 8 8 8 8 8 8 8 8 8 8 8
11 12 12 13 14 14 15 15 16 16 17 17 17 18 18 17 17 17 16 16 15 14 13 12 11 11 10 10 10 10 9 9 9 9 8 8 8 8 8 8 8 8 8 8
9 10 10 11 11 12 13 13 14 15 16 16 17 17 17 17 17 17 17 16 15 14 13 12 11 11 10 10 10 9 9 9 9 9 8 8 8 8 8 9 9 9 9 9
9 9 9 9 9 10 10 10 10 11 12 13 14 15 16 17 17 17 17 16 15 14 14 13 12 11 10 10 10 9 9 9 9 9 9 9 9 9 9 9 9 9 9 9
7 7 8 8 8 9 9 8 8 8 9 10 11 13 14 15 15 16 16 16 16 15 14 13 13 11 10 10 10 9 9 9 9 9 9 9 9 9 9 9 9 9 9 9
7 7 7 8 8 8 8 9 8 8 7 8 9 10 11 12 13 14 15 15 15 15 14 14 13 12 11 10 10 10 9 9 9 9 9 9 9 9 9 9 9 9 10 10
8 8 8 8 8 8 8 8 8 8 7 7 8 8 9 10 11 12 13 13 13 14 14 14 13 12 11 11 10 10 9 9 9 9 9 9 9 9 10 10 10 10 10 10
8 7 7 7 7 8 8 8 8 8 7 7 7 8 9 10 10 11 11 12 12 13 14 13 13 13 12 11 10 10 10 10 9 9 9 9 9 10 10 10 10 10 10 10
7 7 7 7 7 7 7 7 8 8 8 8 7 8 8 9 10 10 10 11 12 12 12 12 12 12 12 12 11 10 10 10 10 10 10 10 10 10 10 10 10 10 10 10
6 6 6 6 6 6 6 7 7 7 7 8 8 8 8 8 9 10 10 10 11 11 12 12 12 12 12 12 11 11 10 10 10 10 10 10 10 10 10 10 10 10 11 11
6 5 5 5 5 5 5 6 6 7 7 7 7 7 8 8 8 9 9 10 11 11 11 11 11 11 11 11 11 11 11 11 10 10 10 10 10 10 10 10 11 11 11 11
5 5 5 4 4 4 4 5 6 6 6 6 7 7 7 7 8 8 9 9 10 10 11 11 11 11 11 11 11 11 11 11 11 11 11 11 11 11 11 11 11 11 11 11
5 5 4 4 4 4 4 4 5 5 5 6 6 6 7 7 7 8 9 9 10 10 10 11 11 11 11 11 10 10 10 11 11 11 11 11 11 11 11 11 11 11 11 11
5 4 4 4 4 4 4 4 4 4 4 5 5 6 6 6 7 8 8 9 10 10 10 10 11 11 11 10 10 10 10 11 11 11 11 12 12 12 12 11 11 11 11 11
4 4 4 4 4 3 3 3 3 4 4 4 4 5 5 6 7 8 8 9 9 10 10 10 10 10 11 11 11 10 10 10 11 11 11 12 12 12 12 12 11 11 11 11
Wind_Speed
8 8 5 8 9 9 10 10 11 11 11 16 12 9 8 7 7 7 7 5 3 2 2 2 2 1 2 2 1 0 1 2 3 3 4 5 6 6 6 6 6 6 6 6
5 7 8 7 11 10 10 8 10 10 13 14 9 6 7 8 8 8 8 6 5 4 5 5 4 3 2 2 2 0 1 2 2 4 5 5 6 6 7 6 6 6 6 6
6 4 2 8 12 10 8 9 10 12 14 8 6 10 10 10 9 9 9 7 7 7 7 6 5 5 4 3 1 1 2 3 4 5 5 5 6 6 7 5 5 6 5 6
3 2 7 11 5 7 8 10 11 10 8 8 11 8 7 8 9 10 9 8 8 7 7 6 5 4 3 2 2 2 3 3 4 5 6 6 6 6 5 5 5 5 5 5
4 5 8 9 7 7 8 10 8 11 11 8 3 2 7 9 10 11 10 8 7 7 7 6 6 5 3 2 2 3 3 4 5 6 6 6 6 6 5 5 5 5 5 6
4 4 8 11 8 3 4 7 8 9 11 6 6 2 9 8 8 10 9 7 7 6 6 6 6 5 5 4 3 4 4 5 5 6 6 6 6 5 4 5 6 7 7 6
6 8 9 9 5 5 4 9 6 8 10 9 10 12 8 3 5 7 8 8 7 7 7 7 6 6 6 5 5 4 4 5 5 5 6 6 5 4 7 7 7 7 8 7
4 5 9 6 4 7 10 6 5 8 10 11 13 12 8 7 7 7 8 8 8 8 7 6 6 7 6 5 4 4 6 6 5 5 5 5 6 6 7 8 8 7 7 6
8 10 9 6 8 9 6 7 9 9 12 12 12 12 10 9 9 9 9 9 8 8 8 6 7 7 7 6 6 7 7 6 6 5 4 5 6 7 6 6 7 6 5 5
7 10 11 12 10 10 10 12 13 12 12 11 13 13 11 10 9 10 10 9 8 8 8 8 8 8 7 7 8 8 7 6 6 6 5 5 5 6 6 7 6 6 5 5
9 11 10 11 11 12 13 11 11 12 11 12 13 14 12 11 11 12 11 9 9 10 11 10 9 8 8 9 9 8 8 7 6 5 6 5 4 3 5 5 6 7 5 5
11 13 10 11 12 12 12 13 13 12 12 11 13 15 13 13 13 13 13 11 10 11 11 10 9 9 9 10 10 10 8 7 6 5 5 6 6 5 6 4 7 9 9 7
14 18 16 15 17 17 15 15 15 14 14 14 12 14 14 13 13 13 12 13 14 14 13 11 10 10 10 11 11 10 9 9 7 7 7 7 7 7 5 5 6 7 9 9
15 13 12 12 15 16 14 14 13 13 12 12 12 11 12 12 11 13 16 17 16 13 12 11 12 12 12 12 12 11 10 10 9 8 8 7 7 7 6 7 5 3 3 7
18 14 11 14 15 16 14 11 11 11 10 10 10 10 12 13 15 17 16 14 12 12 12 12 13 13 12 13 13 12 10 8 8 8 8 7 7 7 6 6 5 4 2 3
17 16 18 19 20 20 20 19 16 15 14 12 9 8 11 14 14 13 12 13 14 16 15 14 15 13 13 14 14 12 10 13 11 9 8 8 7 7 7 6 6 5 6 6
21 22 21 20 18 17 17 17 17 19 19 19 17 13 7 7 8 8 11 14 16 16 15 16 15 13 14 15 15 12 11 12 14 10 9 9 9 8 8 8 7 8 8 8
12 12 12 13 12 12 12 12 14 16 18 20 21 17 11 5 7 10 10 11 11 11 13 15 14 14 15 16 14 11 11 10 10 10 9 9 9 9 9 9 10 10 9 9
13 13 14 14 12 10 9 7 7 8 12 15 18 18 16 12 9 7 5 9 12 15 15 15 18 17 16 17 16 12 12 12 11 10 10 11 10 9 9 10 10 10 10 9
15 15 16 17 16 13 12 10 8 7 7 9 12 15 16 15 13 9 5 9 12 13 11 13 16 16 17 18 19 14 14 14 13 12 11 10 10 10 10 10 10 10 10 9
16 17 17 17 17 17 15 13 12 11 10 8 8 12 14 16 14 10 7 8 9 11 11 15 15 15 15 16 19 15 15 14 14 13 12 11 11 10 10 10 10 10 10 9
15 16 17 17 17 17 16 14 13 14 13 12 12 12 13 14 14 12 11 10 9 10 10 11 13 17 19 19 16 16 16 16 15 13 12 12 12 11 11 11 11 11 10 10
14 15 16 17 17 18 18 16 15 14 14 13 13 13 14 13 11 12 13 10 9 12 10 10 15 21 23 19 16 17 18 18 16 15 14 13 13 12 12 12 11 10 10 10
15 15 15 16 16 17 17 17 15 13 13 13 13 14 14 13 12 12 12 13 15 15 10 12 18 21 23 18 17 17 18 18 17 16 15 14 13 13 12 11 11 10 10 11
16 16 16 16 16 14 14 15 15 14 13 12 13 14 13 12 13 12 11 12 15 14 11 13 17 19 18 16 18 18 17 17 17 16 15 13 13 13 12 12 12 11 10 10
16 15 14 14 14 13 13 12 13 13 13 13 13 13 12 11 11 11 11 12 14 13 11 9 10 13 14 16 18 19 18 17 18 16 15 14 15 14 12 12 13 11 10 10
16 15 13 13 13 12 12 12 13 14 14 14 15 15 13 12 11 11 11 11 10 10 10 9 9 10 12 15 17 17 17 16 15 15 14 14 13 13 13 13 11 10 10 9
Wind_Direction
233 236 211 226 228 195 198 206 215 239 243 260 263 259 261 263 274 280 275 266 244 205 187 157 151 154 257 281 325 49 154 174 174 152 136 125 115 107 99 89 82 68 58 47
260 253 235 254 254 235 224 222 227 248 261 256 254 247 253 256 257 259 256 247 227 202 188 186 192 198 220 256 288 257 159 157 146 136 131 126 122 115 105 94 83 71 59 55
255 280 323 268 244 230 218 213 202 227 245 258 239 237 238 241 239 242 246 236 219 206 198 197 196 195 212 228 251 172 138 130 132 132 128 125 122 117 114 108 95 81 67 66
221 150 228 243 240 204 217 241 222 232 246 229 227 238 241 229 228 239 240 233 220 204 196 197 197 201 212 217 206 171 150 133 125 127 122 118 117 119 116 111 103 90 76 74
162 219 263 286 260 203 208 259 235 224 241 242 225 337 288 241 220 228 229 223 215 200 188 188 198 202 198 202 190 172 160 144 138 138 134 131 132 131 124 118 104 88 79 78
170 213 250 248 253 181 144 268 248 211 231 215 137 246 270 262 225 227 220 208 199 182 171 187 203 187 181 195 196 192 175 157 149 147 144 142 139 131 121 121 112 100 83 71
214 231 260 257 255 131 186 245 256 213 222 195 194 222 234 234 228 217 203 196 183 173 180 197 189 172 184 195 206 196 160 146 145 145 144 140 130 125 127 121 112 102 93 77
204 221 260 266 158 189 224 245 257 234 226 215 225 241 243 238 235 211 194 187 178 178 194 199 181 174 187 200 195 159 144 139 139 139 141 140 130 126 128 126 119 114 105 89
205 225 245 251 225 240 240 251 255 244 239 226 232 242 240 231 223 209 198 190 182 183 193 198 189 183 189 191 161 148 142 142 139 134 130 139 141 138 135 133 132 131 124 115
260 267 263 263 261 263 254 245 253 250 245 229 229 237 232 223 213 206 201 193 184 181 193 204 200 195 192 172 160 152 150 146 142 139 136 141 146 150 150 151 147 145 144 138
257 268 279 276 263 258 263 260 258 258 246 233 231 237 228 218 210 206 203 194 185 190 200 207 197 196 187 171 162 158 156 152 147 146 146 143 137 146 158 163 165 161 164 158
262 264 258 263 260 264 267 267 262 259 260 247 227 234 227 218 211 204 201 192 192 200 205 204 194 195 188 178 170 163 163 162 157 151 148 145 136 106 70 121 157 158 156 154
273 281 278 274 274 272 266 264 262 255 249 249 239 229 224 218 210 201 198 195 200 204 205 199 194 196 191 182 178 175 173 170 164 161 158 157 155 148 135 90 108 144 162 166
316 307 295 294 296 297 288 276 273 266 255 245 244 232 220 216 204 199 203 204 203 199 196 193 195 201 193 183 182 184 179 177 172 171 168 167 167 165 159 157 159 165 183 193
1 2 345 337 342 341 332 323 311 299 289 274 257 236 218 209 206 209 209 199 189 190 194 193 198 202 188 183 186 186 184 182 178 174 173 171 170 168 169 171 175 180 186 211
351 1 8 12 12 11 10 6 358 345 338 327 307 267 231 217 215 212 198 183 183 197 198 196 201 199 185 185 187 187 189 189 181 178 176 174 175 177 181 185 191 199 212 216
356 357 355 354 357 4 8 6 3 358 352 346 335 318 281 232 218 208 197 193 197 201 196 196 200 190 183 186 188 190 190 191 187 184 186 185 185 190 194 197 204 215 226 221
337 331 326 321 324 331 341 351 355 353 347 339 338 339 332 289 243 230 214 199 199 202 201 199 193 184 185 188 190 191 190 190 190 192 192 193 195 198 200 205 213 222 234 232
311 308 307 304 297 293 298 309 323 331 331 331 331 331 329 323 301 276 227 192 199 212 215 202 188 185 189 191 189 191 192 192 193 196 197 197 199 202 204 209 215 221 229 229
302 304 304 304 301 293 284 275 268 270 284 304 314 318 320 319 317 302 251 217 218 222 213 195 193 196 195 194 190 196 198 199 200 201 202 203 204 206 208 212 217 222 225 226
299 301 303 305 304 299 289 276 265 259 252 250 269 287 295 299 301 297 278 259 246 229 216 193 195 201 202 197 194 199 201 204 205 206 207 208 209 211 212 214 216 219 221 223
296 299 301 302 302 299 294 284 272 266 258 249 245 252 264 276 284 284 268 259 257 238 222 212 207 204 200 197 200 201 204 207 210 210 210 210 210 212 215 215 216 219 219 219
295 297 299 300 300 298 296 292 283 276 268 260 254 253 253 257 262 267 273 265 255 247 234 224 214 204 196 200 203 203 205 208 210 211 212 213 213 214 215 215 215 216 216 218
296 297 299 301 301 299 297 294 290 286 279 272 265 261 259 261 261 257 259 259 253 251 243 232 221 208 198 206 207 206 207 208 210 212 213 214 214 214 213 212 213 215 216 217
294 295 297 301 302 299 296 293 291 287 284 282 277 272 268 262 261 261 257 254 250 247 244 237 228 216 209 211 209 208 209 209 209 210 211 211 212 212 212 213 215 215 215 217
294 293 292 289 289 290 290 288 287 286 285 285 284 280 274 267 260 257 255 252 249 244 240 239 233 223 218 214 212 210 209 208 207 209 210 210 212 211 212 213 212 214 215 217
293 290 290 290 289 286 285 284 283 282 279 278 281 280 275 271 264 256 251 249 246 244 240 237 236 228 220 216 213 210 207 205 204 204 207 209 208 209 211 210 211 212 211 211
Height
1509 1506 1506 1506 1506 1510 1515 1514 1516 1508 1504 1491 1484 1483 1481 1480 1479 1478 1476 1475 1474 1473 1473 1474 1475 1476 1477 1478 1478 1477 1477 1478 1480 1481 1482 1483 1485 1486 1487 1488 1489 1490 1491 1491
1507 1502 1503 1503 1499 1499 1502 1502 1503 1499 1494 1479 1478 1478 1477 1476 1475 1474 1473 1473 1472 1471 1472 1473 1474 1475 1476 1476 1476 1476 1476 1477 1479 1480 1482 1483 1485 1486 1488 1489 1490 1491 1492 1493
1514 1503 1502 1505 1492 1490 1492 1490 1491 1491 1482 1474 1476 1474 1472 1472 1471 1471 1470 1470 1470 1470 1470 1471 1472 1474 1474 1475 1474 1475 1475 1476 1478 1479 1481 1483 1485 1487 1488 1490 1491 1492 1493 1494
1515 1510 1514 1496 1479 1480 1482 1479 1478 1476 1472 1471 1469 1468 1468 1468 1468 1467 1467 1467 1467 1468 1469 1470 1471 1472 1472 1472 1473 1473 1475 1476 1477 1479 1481 1483 1485 1487 1489 1490 1491 1493 1494 1495
1518 1515 1504 1488 1476 1474 1478 1476 1468 1469 1467 1466 1467 1467 1465 1464 1463 1463 1464 1464 1465 1465 1466 1468 1469 1469 1470 1470 1470 1472 1473 1475 1477 1478 1480 1482 1484 1486 1488 1490 1492 1493 1494 1495
1514 1511 1507 1485 1468 1467 1472 1476 1463 1462 1462 1463 1465 1470 1463 1459 1459 1459 1460 1461 1462 1463 1464 1465 1466 1467 1467 1468 1469 1470 1472 1474 1476 1478 1480 1481 1483 1485 1487 1489 1491 1493 1494 1496
1509 1508 1493 1472 1466 1468 1479 1474 1459 1458 1457 1458 1459 1458 1456 1455 1456 1456 1457 1458 1459 1460 1461 1462 1463 1464 1464 1465 1467 1469 1471 1473 1475 1477 1478 1480 1482 1484 1486 1488 1490 1492 1494 1495
1506 1506 1494 1466 1466 1469 1465 1457 1456 1454 1453 1453 1452 1451 1452 1452 1452 1453 1453 1455 1456 1457 1458 1459 1460 1461 1462 1463 1465 1467 1469 1471 1473 1475 1477 1479 1480 1482 1485 1487 1489 1491 1493 1494
1492 1485 1469 1464 1462 1459 1457 1455 1452 1450 1449 1448 1447 1447 1447 1447 1448 1449 1450 1451 1453 1454 1455 1456 1457 1458 1459 1461 1463 1465 1467 1470 1472 1473 1475 1477 1479 1481 1483 1486 1488 1490 1492 1493
1481 1471 1463 1458 1456 1454 1452 1449 1447 1445 1443 1443 1442 1441 1442 1442 1443 1444 1446 1448 1449 1451 1452 1453 1454 1455 1457 1459 1461 1463 1465 1467 1469 1471 1473 1475 1477 1479 1482 1484 1486 1488 1490 1492
1475 1464 1457 1452 1450 1447 1445 1443 1441 1439 1438 1436 1436 1435 1435 1436 1437 1439 1441 1443 1445 1446 1448 1449 1451 1452 1454 1455 1457 1460 1462 1464 1466 1468 1470 1473 1475 1477 1480 1482 1485 1487 1489 1491
1466 1456 1453 1447 1443 1441 1439 1436 1435 1433 1431 1430 1429 1428 1428 1429 1431 1433 1435 1438 1440 1442 1444 1446 1447 1449 1450 1452 1454 1456 1458 1460 1463 1465 1468 1470 1472 1475 1477 1480 1483 1485 1488 1490
1458 1451 1447 1441 1436 1434 1431 1429 1427 1425 1424 1423 1422 1422 1421 1421 1423 1426 1429 1431 1434 1436 1438 1441 1443 1445 1447 1449 1450 1452 1454 1457 1459 1462 1465 1467 1470 1472 1475 1479 1481 1484 1486 1488
1454 1447 1440 1435 1432 1427 1424 1422 1420 1417 1416 1415 1415 1414 1413 1414 1416 1418 1421 1424 1427 1430 1433 1436 1438 1440 1442 1445 1447 1449 1451 1454 1456 1459 1462 1465 1468 1471 1474 1476 1479 1482 1485 1487
1454 1449 1444 1436 1429 1423 1420 1417 1414 1412 1410 1409 1408 1406 1405 1405 1407 1410 1413 1417 1421 1424 1427 1430 1432 1434 1437 1440 1443 1445 1448 1450 1453 1456 1459 1462 1465 1469 1472 1475 1478 1481 1483 1485
1458 1451 1443 1437 1430 1424 1420 1417 1414 1412 1409 1406 1403 1401 1399 1398 1399 1402 1406 1410 1413 1416 1420 1423 1425 1429 1432 1435 1438 1441 1444 1447 1451 1453 1456 1459 1463 1466 1469 1473 1476 1478 1481 1483
1458 1451 1446 1441 1436 1429 1425 1421 1417 1414 1409 1405 1402 1398 1395 1393 1394 1396 1399 1403 1406 1409 1413 1416 1419 1423 1426 1430 1433 1436 1439 1443 1447 1450 1453 1457 1460 1463 1467 1470 1473 1475 1477 1479
1461 1456 1450 1445 1439 1432 1426 1421 1416 1412 1410 1406 1401 1396 1393 1391 1391 1392 1394 1396 1399 1403 1406 1410 1414 1417 1421 1424 1427 1431 1435 1438 1442 1446 1449 1453 1456 1460 1463 1466 1468 1471 1473 1475
1455 1450 1445 1440 1435 1429 1424 1417 1413 1408 1406 1403 1400 1396 1392 1390 1389 1389 1390 1391 1392 1395 1398 1402 1406 1410 1414 1418 1422 1425 1429 1433 1437 1441 1445 1448 1452 1455 1458 1460 1463 1465 1467 1469
1450 1445 1440 1434 1429 1424 1418 1413 1408 1404 1400 1397 1395 1392 1389 1387 1386 1386 1386 1385 1386 1387 1391 1395 1399 1403 1406 1411 1415 1419 1423 1427 1431 1434 1438 1442 1445 1448 1451 1454 1457 1459 1461 1463
1442 1437 1432 1426 1421 1416 1412 1407 1403 1398 1394 1391 1389 1388 1385 1383 1382 1381 1381 1381 1381 1383 1384 1387 1390 1394 1399 1403 1407 1411 1415 1420 1423 1427 1431 1434 1438 1441 1444 1447 1450 1452 1454 1456
1434 1429 1423 1418 1412 1407 1402 1398 1395 1391 1388 1385 1383 1381 1380 1377 1376 1375 1375 1375 1375 1377 1378 1379 1381 1384 1388 1394 1398 1402 1407 1411 1415 1419 1423 1427 1430 1434 1437 1439 1442 1444 1447 1449
1425 1420 1414 1408 1403 1397 1392 1388 1385 1382 1379 1376 1375 1373 1372 1370 1369 1367 1365 1366 1368 1368 1369 1370 1372 1374 1378 1383 1388 1392 1397 1402 1406 1410 1414 1418 1422 1426 1429 1432 1434 1437 1439 1442
1417 1411 1405 1399 1393 1387 1381 1377 1374 1372 1369 1366 1365 1363 1362 1360 1357 1357 1357 1357 1358 1359 1359 1361 1363 1365 1368 1372 1377 1382 1386 1391 1396 1401 1405 1410 1413 1417 1420 1423 1426 1429 1432 1434
1409 1402 1396 1390 1384 1378 1372 1368 1364 1361 1358 1356 1353 1352 1350 1348 1346 1345 1346 1347 1347 1348 1349 1351 1353 1355 1358 1361 1365 1370 1375 1380 1386 1391 1395 1400 1404 1408 1411 1415 1418 1421 1423 1426
1400 1393 1387 1381 1376 1370 1364 1359 1355 1351 1348 1345 1342 1339 1337 1335 1334 1334 1335 1336 1337 1338 1339 1341 1343 1345 1347 1350 1354 1359 1364 1370 1376 1381 1386 1390 1395 1399 1402 1406 1409 1412 1415 1417
1391 1384 1378 1371 1365 1360 1355 1349 1344 1340 1337 1334 1330 1327 1325 1324 1324 1324 1325 1326 1327 1328 1329 1331 1333 1335 1336 1339 1343 1347 1353 1359 1364 1370 1376 1381 1386 1390 1394 1397 1400 1403 1406 1409